Hourly Weather Roundup
Issued by NWS Central Illinois

Home | Current Version | Previous Version | Text Only | Print | Product List | Glossary On
Versions: 1 2 3 4 5 6 7 8 9 10 11 12 13 14 15 16 17 18 19 20 21 22 23 24 25 26 27 28 29 30 31 32 33 34 35 36 37 38 39 40 41 42 43 44 45 46 47 48 49 50
000
NZUS43 KILX 242110
HWRILX

AREA WEATHER ROUNDUP
NATIONAL WEATHER SERVICE, LINCOLN IL
300 PM CST FRI FEB 24 2017


CITY           SKY/WX    TMP DP  RH WIND       PRES   REMARKS
BLOOMINGTON    CLOUDY    48  42  80 W20G28    29.54R
CHAMPAIGN      PTSUNNY   57  46  66 W23G36    29.52R
DECATUR        CLOUDY    52  42  69 W21G28    29.56R
EFFINGHAM      CLOUDY    58  52  79 SW21      29.59R
FLORA          CLOUDY    62  52  70 W20G29    29.56R
GALESBURG      CLOUDY    40  38  91 W13       29.56R WCI  33
JACKSONVILLE   CLOUDY    47  39  75 W14G20    29.60S
LACON          CLOUDY    43  41  93 W13       29.54R
LAWRENCEVILLE  CLOUDY    69  53  56 SW22G31   29.53R
LITCHFIELD     CLOUDY    52  43  72 W16G26    29.61R
$$


CITY           SKY/WX    TMP DP  RH WIND       PRES   REMARKS
LINCOLN        CLOUDY    51  42  70 W14G21    29.57R
MACOMB         CLOUDY    43  39  86 W16       29.60S WCI  35
MATTOON        CLOUDY    57  50  77 W16       29.54R
MT CARMEL AP   CLOUDY    68  53  57 SW21G26   29.53S
OLNEY-NOBLE AP CLOUDY    66  57  72 SW8       29.53F
PARIS          CLOUDY    59  52  77 W23       29.53R
PEORIA         CLOUDY    44  38  79 W16G23    29.57R
PONTIAC        CLOUDY    51  47  86 W23G31    29.51R
RANTOUL        MOSUNNY   60  49  68 W20G31    29.49S
SPRINGFIELD    CLOUDY    52  41  66 W21G26    29.59R
TAYLORVILLE    CLOUDY    52  43  72 W21G29    29.58R
$$

...REGIONAL REPORTS...


CITY           SKY/WX    TMP DP  RH WIND       PRES   REMARKS
CHICAGO O`HARE CLOUDY    40  38  93 N9        29.45R FOG     WCI  34
KANKAKEE       CLOUDY    61  49  66 SW24      29.47R
MOLINE         CLOUDY    41  35  79 NW6       29.56R HAZE
MOUNT STERLING CLOUDY    45  37  74 W12       29.60S
MOUNT VERNON   CLOUDY    60  51  72 VRB6      29.57R
PITTSFIELD     CLOUDY    46  40  79 SW13      29.63R
QUINCY         CLOUDY    45  37  73 W13       29.60R
ROCKFORD       DRIZZLE   38  35  89 N8        29.52R FOG     WCI  32
$$


CITY           SKY/WX    TMP DP  RH WIND       PRES   REMARKS
BURLINGTON     CLOUDY    40  37  89 W9        29.58R WCI  34
CEDAR RAPIDS   CLOUDY    33  32  96 N16       29.58S WCI  23
DES MOINES     LGT SNOW  28  24  85 N15G25    29.72R FOG     WCI  16
KIRKSVILLE     CLOUDY    39  32  76 W16       29.64R WCI  30
OTTUMWA        CLOUDY    35  33  92 NW13      29.62R WCI  26
ST LOUIS       PTSUNNY   58  39  49 W17G25    29.63S
$$


CITY           SKY/WX    TMP DP  RH WIND       PRES   REMARKS
TERRE HAUTE    CLOUDY    66  53  63 SW12G25   29.51S
EVANSVILLE     CLOUDY    73  52  47 SW23G30   29.55F
INDIANAPOLIS   PTSUNNY   69  55  60 SW13      29.50R THUNDER
LAFAYETTE      PTSUNNY   67  55  65 SW14G29   29.46S
MADISON        FRZ DRZL  29  26  89 N20G26    29.56R FOG     WCI  16
MILWAUKEE      LGT RAIN  36  33  89 N15       29.48S FOG     WCI  27
$$





USA.gov is the U.S. government's official web portal to all federal, state and local government web resources and services.